Left ArrowRight Arrow

Hourly Observations for June 22, 2018

Temp ( °F °C ) Dew Point ( °F °C ) Humidity (%) Winds ( mph kmh ) Pressure ( in mb ) Visibility ( mi km ) Precip ( " mm )
12:15 am 00:15 Cloudy with Light Rain 67 19.7 67 19.7 100 100 W 7 11 29.71 1006 10 16 0.01 0.25
12:35 am 00:35 Cloudy 66 19 66 19 100 100 W 5 7 29.71 1006 7 11 0.02 0.51
12:55 am 00:55 Cloudy 66 19 66 19 100 100 Calm 29.71 1006 7 11 0.02 0.51
1:15 am 01:15 Mostly Cloudy with Mist and Fog 66 18.8 66 18.8 100 100 Calm 29.68 1005 5 8 0.00 0.00
1:35 am 01:35 Mostly Cloudy with Mist and Fog 66 18.8 66 18.8 100 100 N 3 6 29.68 1005 5 8 0.00 0.00
1:55 am 01:55 Mostly Cloudy with Mist and Fog 66 18.7 66 18.7 100 100 N 3 6 29.68 1005 5 8 0.00 0.00
2:15 am 02:15 Mostly Cloudy with Mist and Fog 65 18.6 65 18.6 100 100 N 3 6 29.68 1005 4 6 0.00 0.00
2:35 am 02:35 Cloudy with Mist and Fog 65 18.5 65 18.5 100 100 Calm 29.68 1005 4 6 0.00 0.00
2:55 am 02:55 Mostly Cloudy with Mist and Fog 65 18.3 65 18.3 100 100 Calm 29.68 1005 4 6 0.00 0.00
3:15 am 03:15 Partly Cloudy with Mist and Fog 65 18.3 65 18.3 100 100 Calm 29.68 1005 4 6 0.00 0.00
3:35 am 03:35 Partly Cloudy with Mist and Fog 65 18.5 65 18.5 100 100 Calm 29.68 1005 4 6 0.00 0.00
3:55 am 03:55 Cloudy with Mist and Fog 65 18.5 65 18.5 100 100 Calm 29.68 1005 3 5 0.00 0.00
4:15 am 04:15 Cloudy with Mist and Fog 65 18.5 65 18.5 100 100 Calm 29.68 1005 4 6 0.00 0.00
4:35 am 04:35 Mostly Cloudy with Mist and Fog 65 18.5 65 18.5 100 100 Calm 29.68 1005 4 6 0.00 0.00
4:55 am 04:55 Mostly Cloudy with Light Rain 65 18.5 65 18.5 100 100 Calm 29.68 1005 4 6 0.00 0.00
5:15 am 05:15 Partly Cloudy with Mist and Fog 65 18.3 65 18.3 100 100 Calm 29.68 1005 3 5 0.00 0.00
5:35 am 05:35 Mostly Cloudy with Light Rain 65 18.5 65 18.5 100 100 Calm 29.68 1005 4 6 0.00 0.00
5:55 am 05:55 Cloudy with Mist and Fog 65 18.6 65 18.6 100 100 Calm 29.68 1005 4 6 0.00 0.00
6:15 am 06:15 Cloudy with Mist and Fog 66 18.7 66 18.7 100 100 SSE 3 6 29.68 1005 3 5 0.00 0.00
6:35 am 06:35 Cloudy with Mist and Fog 66 18.8 66 18.8 100 100 Calm 29.71 1006 3 4 0.00 0.00
6:55 am 06:55 Cloudy with Mist and Fog 66 18.8 66 18.8 100 100 SSE 3 6 29.71 1006 3 4 0.00 0.00
7:15 am 07:15 Cloudy with Mist and Fog 66 18.8 66 18.8 100 100 Calm 29.71 1006 4 6 0.00 0.00
7:35 am 07:35 Mostly Cloudy with Mist and Fog 66 18.8 66 18.8 100 100 Calm 29.68 1005 4 6 0.00 0.00
7:55 am 07:55 Cloudy with Mist and Fog 66 18.8 66 18.8 100 100 Calm 29.68 1005 4 6 0.00 0.00
8:15 am 08:15 Cloudy with Mist and Fog 66 18.7 66 18.7 100 100 Calm 29.68 1005 5 8 0.00 0.00
8:35 am 08:35 Cloudy with Mist and Fog 67 19.2 67 19.2 100 100 ESE 3 6 29.71 1006 5 8 0.00 0.00
8:55 am 08:55 Cloudy with Mist and Fog 66 19.1 66 19 99 99 SSE 3 6 29.71 1006 5 8 0.00 0.00
9:15 am 09:15 Mostly Cloudy 67 19.5 67 19.3 99 99 S 5 7 29.71 1006 7 11 0.00 0.00
9:35 am 09:35 Mostly Cloudy 68 19.8 67 19.3 97 97 SSE 5 7 29.71 1006 10 16 0.00 0.00
9:55 am 09:55 Cloudy 68 20 66 19 94 94 SSE 3 6 29.71 1006 10 16 0.00 0.00
10:15 am 10:15 Mostly Cloudy 70 21 68 19.9 93 93 SSE 5 7 29.71 1006 10 16 0.00 0.00
10:35 am 10:35 Mostly Cloudy 70 21 67 19.4 91 91 SSE 5 7 29.71 1006 10 16 0.00 0.00
10:55 am 10:55 Mostly Cloudy 70 21.2 67 19.2 88 88 S 3 6 29.71 1006 10 16 0.00 0.00
11:15 am 11:15 Cloudy 70 21.2 67 19.4 90 90 WSW 3 6 29.71 1006 10 16 0.00 0.00
11:35 am 11:35 Mostly Cloudy 71 21.7 67 19.3 86 86 SSW 7 11 29.71 1006 10 16 0.00 0.00
11:55 am 11:55 Mostly Cloudy 73 22.6 68 19.8 84 84 SW 6 9 29.71 1006 10 16 0.00 0.00
12:15 pm 12:15 Partly Cloudy 74 23.1 66 18.9 77 77 SSW 6 9 29.68 1005 10 16 0.00 0.00
12:35 pm 12:35 Partly Cloudy 75 23.8 67 19.6 77 77 SSW 8 13 29.68 1005 10 16 0.00 0.00
12:55 pm 12:55 Partly Cloudy 76 24.2 67 19.3 74 74 SSW 9 15 29.68 1005 10 16 0.00 0.00
1:15 pm 13:15 Partly Cloudy 74 23.2 64 18 73 73 SSW 7 11 29.68 1005 10 16 0.00 0.00
1:35 pm 13:35 Partly Cloudy with Nearby Thunderstorms 74 23.1 65 18.5 75 75 SSW 10 17 29.68 1005 10 16 0.00 0.00
1:55 pm 13:55 Sunny 73 22.6 67 19.2 81 81 S 12 19 29.68 1005 10 16 0.00 0.00
2:15 pm 14:15 Partly Cloudy 73 22.7 67 19.5 82 82 S 8 13 29.68 1005 10 16 0.00 0.00
2:35 pm 14:35 Partly Cloudy 74 23.1 65 18.6 76 76 SSW 7 11 29.68 1005 10 16 0.00 0.00
2:55 pm 14:55 Partly Cloudy 75 24 66 18.9 73 73 S 7 11 29.65 1004 10 16 0.00 0.00
3:15 pm 15:15 Partly Cloudy 75 24.1 64 17.9 68 68 SSW 10 17 29.65 1004 10 16 0.00 0.00
3:35 pm 15:35 Cloudy 75 23.9 64 17.8 69 69 SSW 8 13 29.65 1004 10 16 0.00 0.00
3:55 pm 15:55 Cloudy 75 23.8 64 18 70 70 SSE 8 13 29.65 1004 10 16 0.00 0.00
4:15 pm 16:15 Mostly Cloudy 75 23.7 63 17.3 67 67 SSW 5 7 29.65 1004 10 16 0.00 0.00
4:35 pm 16:35 Mostly Cloudy 75 23.7 64 17.6 69 69 SSW 6 9 29.65 1004 10 16 0.00 0.00
4:55 pm 16:55 Partly Cloudy 76 24.2 63 17.3 65 65 Calm 29.65 1004 10 16 0.00 0.00
5:15 pm 17:15 Mostly Cloudy 75 23.7 63 17.3 67 67 S 3 6 29.65 1004 10 16 0.00 0.00
5:35 pm 17:35 Mostly Cloudy 74 23.2 63 17.3 70 70 SW 5 7 29.65 1004 10 16 0.00 0.00
5:55 pm 17:55 Cloudy 74 23.1 65 18.1 74 74 WSW 7 11 29.65 1004 10 16 0.00 0.00
6:15 pm 18:15 Partly Cloudy 73 23 64 17.8 73 73 WSW 5 7 29.62 1003 10 16 0.00 0.00
6:35 pm 18:35 Mostly Cloudy 74 23.3 63 17.3 69 69 WSW 5 7 29.62 1003 10 16 0.00 0.00
6:55 pm 18:55 Cloudy 73 22.5 65 18.3 77 77 SE 7 11 29.62 1003 10 16 0.00 0.00
7:15 pm 19:15 Cloudy 69 20.3 65 18.1 87 87 W 9 15 29.65 1004 10 16 0.00 0.00
7:35 pm 19:35 Cloudy with Light Rain 66 19 65 18.1 95 95 N 8 13 29.65 1004 10 16 0.00 0.00
7:55 pm 19:55 Cloudy 66 18.7 65 18.1 96 96 N 9 15 29.65 1004 10 16 0.00 0.00
8:15 pm 20:15 Cloudy 66 19 64 18 94 94 NNW 7 11 29.65 1004 10 16 0.00 0.00
8:35 pm 20:35 Cloudy 66 19 64 17.6 92 92 NNW 8 13 29.65 1004 10 16 0.00 0.00
8:55 pm 20:55 Cloudy 66 19 64 18 94 94 NNW 7 11 29.65 1004 10 16 0.00 0.00
9:15 pm 21:15 Cloudy 65 18.6 65 18.2 98 98 NNW 3 6 29.65 1004 10 16 0.00 0.00
9:35 pm 21:35 Mostly Cloudy 65 18.5 65 18.2 98 98 N 5 7 29.65 1004 10 16 0.00 0.00
9:55 pm 21:55 Partly Cloudy 65 18.1 64 18 99 99 Calm 29.65 1004 10 16 0.00 0.00
10:15 pm 22:15 Partly Cloudy 64 18 64 17.8 99 99 W 3 6 29.65 1004 10 16 0.00 0.00
10:35 pm 22:35 Clear 64 18 64 17.8 99 99 WSW 3 6 29.71 1006 10 16 0.00 0.00
10:55 pm 22:55 Clear 64 17.8 64 17.7 99 99 Calm 29.71 1006 10 16 0.00 0.00
11:15 pm 23:15 Clear 64 17.7 64 17.7 100 100 Calm 29.71 1006 10 16 0.00 0.00
11:35 pm 23:35 Clear 64 17.5 64 17.5 100 100 Calm 29.71 1006 10 16 0.00 0.00
11:55 pm 23:55 Clear 64 17.5 64 17.5 100 100 WSW 5 7 29.71 1006 10 16 0.00 0.00

Powered by Vaisala Xweather